Datum;Stunden;Zählung;Temperatur (°C);Min. Temperatur (°C);Max. Temperatur (°C);Windstärke (km/h);Regen (mm);Schnee (mm);Wetter
01.01.2018;00:00;0;8;-;-;32;;;wolkig
01.01.2018;01:00;2;8;-;-;37;;;wolkig
01.01.2018;02:00;0;7;-;-;41;;;Klarer Himmel
01.01.2018;03:00;0;8;-;-;37;;;wolkig
01.01.2018;04:00;1;8;-;-;43;;;teilweise bewölkt
01.01.2018;05:00;0;7;-;-;37;;;teilweise bewölkt
01.01.2018;06:00;1;7;-;-;37;;;teilweise bewölkt
01.01.2018;07:00;1;7;-;-;32;;;teilweise bewölkt
01.01.2018;08:00;1;7;-;-;32;;;wolkig
01.01.2018;09:00;2;6;-;-;41;;;Regen
01.01.2018;10:00;4;7;-;-;22;;;wolkig
01.01.2018;11:00;7;8;-;-;26;;;wolkig
01.01.2018;12:00;12;9;-;-;32;;;teilweise bewölkt
01.01.2018;13:00;7;8;-;-;24;;;wolkig
01.01.2018;14:00;2;8;-;-;22;;;wolkig
01.01.2018;15:00;4;8;-;-;22;;;Regen
01.01.2018;16:00;5;7;-;-;19;;;Regen
01.01.2018;17:00;5;6;-;-;15;;;Regen
01.01.2018;18:00;4;6;-;-;19;;;Regen
01.01.2018;19:00;3;6;-;-;9;;;Regen
01.01.2018;20:00;2;6;-;-;13;;;Regen
01.01.2018;21:00;0;5;-;-;11;;;Regen
01.01.2018;22:00;1;5;-;-;20;;;Regen
01.01.2018;23:00;1;5;-;-;28;;;Regen
02.01.2018;00:00;0;5;-;-;15;;;Regen
02.01.2018;01:00;0;5;-;-;17;;;wolkig
02.01.2018;02:00;0;5;-;-;19;;;wolkig
02.01.2018;03:00;0;5;-;-;15;;;wolkig
02.01.2018;04:00;4;5;-;-;19;;;Regen
02.01.2018;05:00;2;5;-;-;17;;;Regen
02.01.2018;06:00;13;5;-;-;17;;;teilweise bewölkt
02.01.2018;07:00;6;6;-;-;19;;;wolkig
02.01.2018;08:00;9;6;-;-;20;;;Regen
02.01.2018;09:00;10;6;-;-;22;;;wolkig
02.01.2018;10:00;12;6;-;-;19;;;wolkig
02.01.2018;11:00;7;6;-;-;20;;;Regen
02.01.2018;12:00;8;6;-;-;19;;;Regen
02.01.2018;13:00;22;7;-;-;19;;;wolkig
02.01.2018;14:00;6;6;-;-;17;;;wolkig
02.01.2018;15:00;17;6;-;-;19;;;wolkig
02.01.2018;16:00;18;6;-;-;17;;;wolkig
02.01.2018;17:00;8;7;-;-;22;;;wolkig
02.01.2018;18:00;5;7;-;-;22;;;Regen
02.01.2018;19:00;8;6;-;-;24;;;Regen
02.01.2018;20:00;6;6;-;-;32;;;Regen
02.01.2018;21:00;0;6;-;-;33;;;Regen
02.01.2018;22:00;3;6;-;-;30;;;Regen
02.01.2018;23:00;0;7;-;-;26;;;Regen
03.01.2018;00:00;2;7;-;-;26;;;Regen
03.01.2018;01:00;0;8;-;-;30;;;Regen
03.01.2018;02:00;1;8;-;-;30;;;Regen
03.01.2018;03:00;1;8;-;-;33;;;Regen
03.01.2018;04:00;1;10;-;-;30;;;Regen
03.01.2018;05:00;5;10;-;-;41;;;Regen
03.01.2018;06:00;8;10;-;-;35;;;Regen
03.01.2018;07:00;4;10;-;-;28;;;Regen
03.01.2018;08:00;6;6;-;-;35;;;wolkig
03.01.2018;09:00;5;8;-;-;30;;;teilweise bewölkt
03.01.2018;10:00;3;8;-;-;44;;;wolkig
03.01.2018;11:00;7;8;-;-;46;;;Regen
03.01.2018;12:00;7;7;-;-;44;;;Regen
03.01.2018;13:00;5;7;-;-;46;;;Regen
03.01.2018;14:00;2;8;-;-;43;;;Regen
03.01.2018;15:00;11;8;-;-;39;;;Regen
03.01.2018;16:00;6;7;-;-;41;;;Regen
03.01.2018;17:00;9;8;-;-;41;;;wolkig
03.01.2018;18:00;1;8;-;-;33;;;Regen
03.01.2018;19:00;2;8;-;-;33;;;Regen
03.01.2018;20:00;4;7;-;-;37;;;wolkig
03.01.2018;21:00;1;7;-;-;32;;;Regen
03.01.2018;22:00;0;;-;-;;;;
03.01.2018;23:00;0;;-;-;;;;
04.01.2018;00:00;0;;-;-;;;;
04.01.2018;01:00;0;;-;-;;;;
04.01.2018;02:00;0;;-;-;;;;
04.01.2018;03:00;1;;-;-;;;;
04.01.2018;04:00;0;;-;-;;;;
04.01.2018;05:00;9;7;-;-;24;;;wolkig
04.01.2018;06:00;5;8;-;-;28;;;wolkig
04.01.2018;07:00;9;7;-;-;20;;;wolkig
04.01.2018;08:00;12;7;-;-;22;;;Klarer Himmel
04.01.2018;09:00;14;7;-;-;20;;;wolkig
04.01.2018;10:00;16;8;-;-;17;;;wolkig
04.01.2018;11:00;9;7;-;-;17;;;Regen
04.01.2018;12:00;7;7;-;-;17;;;Regen
04.01.2018;13:00;9;8;-;-;15;;;Regen
04.01.2018;14:00;9;8;-;-;22;;;Regen
04.01.2018;15:00;10;8;-;-;19;;;Regen
04.01.2018;16:00;11;10;-;-;19;;;wolkig
04.01.2018;17:00;17;11;-;-;26;;;wolkig
04.01.2018;18:00;9;11;-;-;32;;;wolkig
04.01.2018;19:00;2;11;-;-;32;;;wolkig
04.01.2018;20:00;3;11;-;-;39;;;Regen
04.01.2018;21:00;3;10;-;-;48;;;wolkig
04.01.2018;22:00;2;9;-;-;30;;;wolkig
04.01.2018;23:00;2;9;-;-;32;;;wolkig
05.01.2018;00:00;0;8;-;-;35;;;wolkig
05.01.2018;01:00;0;8;-;-;32;;;wolkig
05.01.2018;02:00;0;8;-;-;28;;;wolkig
05.01.2018;03:00;0;8;-;-;28;;;wolkig
05.01.2018;04:00;2;8;-;-;24;;;Regen
05.01.2018;05:00;7;7;-;-;24;;;wolkig
05.01.2018;06:00;2;8;-;-;37;;;wolkig
05.01.2018;07:00;8;9;-;-;24;;;Regen
05.01.2018;08:00;12;8;-;-;26;;;wolkig
05.01.2018;09:00;18;8;-;-;19;;;wolkig
05.01.2018;10:00;13;9;-;-;20;;;wolkig
05.01.2018;11:00;16;9;-;-;15;;;wolkig
05.01.2018;12:00;14;9;-;-;19;;;wolkig
05.01.2018;13:00;16;9;-;-;17;;;wolkig
05.01.2018;14:00;18;9;-;-;15;;;wolkig
05.01.2018;15:00;21;9;-;-;19;;;wolkig
05.01.2018;16:00;7;9;-;-;13;;;wolkig
05.01.2018;17:00;8;9;-;-;20;;;wolkig
05.01.2018;18:00;4;9;-;-;20;;;wolkig
05.01.2018;19:00;5;9;-;-;24;;;wolkig
05.01.2018;20:00;3;8;-;-;22;;;Klarer Himmel
05.01.2018;21:00;3;5;-;-;15;;;Klarer Himmel
05.01.2018;22:00;3;6;-;-;15;;;Klarer Himmel
05.01.2018;23:00;2;6;-;-;15;;;Klarer Himmel
06.01.2018;00:00;2;5;-;-;17;;;Klarer Himmel
06.01.2018;01:00;2;5;-;-;15;;;Klarer Himmel
06.01.2018;02:00;0;4;-;-;15;;;Klarer Himmel
06.01.2018;03:00;0;4;-;-;19;;;Klarer Himmel
06.01.2018;04:00;0;3;-;-;15;;;Klarer Himmel
06.01.2018;05:00;3;4;-;-;13;;;Klarer Himmel
06.01.2018;06:00;1;4;-;-;13;;;Klarer Himmel
06.01.2018;07:00;1;3;-;-;11;;;Klarer Himmel
06.01.2018;08:00;6;4;-;-;9;;;Klarer Himmel
06.01.2018;09:00;10;3;-;-;6;;;Klarer Himmel
06.01.2018;10:00;12;6;-;-;6;;;Klarer Himmel
06.01.2018;11:00;18;6;-;-;9;;;Klarer Himmel
06.01.2018;12:00;20;7;-;-;4;;;Klarer Himmel
06.01.2018;13:00;18;7;-;-;4;;;Klarer Himmel
06.01.2018;14:00;18;7;-;-;2;;;Klarer Himmel
06.01.2018;15:00;9;7;-;-;9;;;Klarer Himmel
06.01.2018;16:00;10;6;-;-;7;;;Klarer Himmel
06.01.2018;17:00;11;6;-;-;11;;;Klarer Himmel
06.01.2018;18:00;3;6;-;-;13;;;Klarer Himmel
06.01.2018;19:00;8;6;-;-;9;;;Klarer Himmel
06.01.2018;20:00;7;6;-;-;13;;;Klarer Himmel
06.01.2018;21:00;4;6;-;-;17;;;wolkig
06.01.2018;22:00;1;6;-;-;17;;;wolkig
06.01.2018;23:00;2;6;-;-;17;;;wolkig
07.01.2018;00:00;1;5;-;-;22;;;Regen
07.01.2018;01:00;0;4;-;-;20;;;wolkig
07.01.2018;02:00;0;4;-;-;20;;;Regen
07.01.2018;03:00;2;4;-;-;20;;;wolkig
07.01.2018;04:00;0;4;-;-;19;;;wolkig
07.01.2018;05:00;0;4;-;-;22;;;wolkig
07.01.2018;06:00;2;4;-;-;26;;;wolkig
07.01.2018;07:00;3;4;-;-;24;;;wolkig
07.01.2018;08:00;2;4;-;-;24;;;wolkig
07.01.2018;09:00;3;3;-;-;22;;;wolkig
07.01.2018;10:00;8;3;-;-;20;;;wolkig
07.01.2018;11:00;3;3;-;-;22;;;wolkig
07.01.2018;12:00;10;3;-;-;22;;;wolkig
07.01.2018;13:00;12;3;-;-;28;;;wolkig
07.01.2018;14:00;17;3;-;-;24;;;teilweise bewölkt
07.01.2018;15:00;11;3;-;-;20;;;teilweise bewölkt
07.01.2018;16:00;3;3;-;-;22;;;wolkig
07.01.2018;17:00;4;3;-;-;19;;;wolkig
07.01.2018;18:00;2;3;-;-;28;;;wolkig
07.01.2018;19:00;4;2;-;-;24;;;wolkig
07.01.2018;20:00;2;2;-;-;22;;;wolkig
07.01.2018;21:00;1;2;-;-;28;;;wolkig
07.01.2018;22:00;0;2;-;-;24;;;wolkig
07.01.2018;23:00;0;2;-;-;24;;;wolkig
08.01.2018;00:00;0;2;-;-;22;;;wolkig
08.01.2018;01:00;0;2;-;-;24;;;wolkig
08.01.2018;02:00;0;2;-;-;22;;;wolkig
08.01.2018;03:00;2;2;-;-;22;;;wolkig
08.01.2018;04:00;1;2;-;-;28;;;wolkig
08.01.2018;05:00;18;2;-;-;32;;;wolkig
08.01.2018;06:00;16;2;-;-;33;;;wolkig
08.01.2018;07:00;154;2;-;-;32;;;wolkig
08.01.2018;08:00;22;3;-;-;17;;;wolkig
08.01.2018;09:00;36;3;-;-;20;;;wolkig
08.01.2018;10:00;19;3;-;-;22;;;wolkig
08.01.2018;11:00;40;3;-;-;19;;;wolkig
08.01.2018;12:00;24;5;-;-;17;;;wolkig
08.01.2018;13:00;40;5;-;-;17;;;wolkig
08.01.2018;14:00;39;6;-;-;17;;;Klarer Himmel
08.01.2018;15:00;132;5;-;-;19;;;Klarer Himmel
08.01.2018;16:00;46;4;-;-;17;;;Klarer Himmel
08.01.2018;17:00;19;3;-;-;17;;;Klarer Himmel
08.01.2018;18:00;11;3;-;-;17;;;Klarer Himmel
08.01.2018;19:00;7;2;-;-;17;;;Klarer Himmel
08.01.2018;20:00;7;1;-;-;15;;;Klarer Himmel
08.01.2018;21:00;3;2;-;-;13;;;Klarer Himmel
08.01.2018;22:00;2;1;-;-;11;;;Klarer Himmel
08.01.2018;23:00;0;1;-;-;11;;;Klarer Himmel
09.01.2018;00:00;2;1;-;-;11;;;teilweise bewölkt
09.01.2018;01:00;0;1;-;-;13;;;teilweise bewölkt
09.01.2018;02:00;0;1;-;-;13;;;teilweise bewölkt
09.01.2018;03:00;0;0;-;-;11;;;teilweise bewölkt
09.01.2018;04:00;4;0;-;-;11;;;Klarer Himmel
09.01.2018;05:00;17;0;-;-;9;;;Klarer Himmel
09.01.2018;06:00;13;1;-;-;11;;;Klarer Himmel
09.01.2018;07:00;147;0;-;-;11;;;Klarer Himmel
09.01.2018;08:00;22;-1;-;-;7;;;wolkig
09.01.2018;09:00;42;3;-;-;7;;;wolkig
09.01.2018;10:00;15;5;-;-;13;;;wolkig
09.01.2018;11:00;47;6;-;-;17;;;wolkig
09.01.2018;12:00;68;6;-;-;22;;;wolkig
09.01.2018;13:00;63;7;-;-;17;;;wolkig
09.01.2018;14:00;32;7;-;-;24;;;wolkig
09.01.2018;15:00;49;7;-;-;20;;;Klarer Himmel
09.01.2018;16:00;37;7;-;-;15;;;Klarer Himmel
09.01.2018;17:00;20;7;-;-;20;;;Klarer Himmel
09.01.2018;18:00;20;6;-;-;19;;;Klarer Himmel
09.01.2018;19:00;11;6;-;-;15;;;Klarer Himmel
09.01.2018;20:00;6;6;-;-;19;;;Klarer Himmel
09.01.2018;21:00;4;6;-;-;17;;;wolkig
09.01.2018;22:00;2;7;-;-;17;;;wolkig
09.01.2018;23:00;1;7;-;-;19;;;wolkig
10.01.2018;00:00;2;7;-;-;17;;;teilweise bewölkt
10.01.2018;01:00;0;7;-;-;17;;;Regen
10.01.2018;02:00;0;7;-;-;15;;;teilweise bewölkt
10.01.2018;03:00;0;8;-;-;19;;;wolkig
10.01.2018;04:00;3;7;-;-;17;;;wolkig
10.01.2018;05:00;8;8;-;-;17;;;wolkig
10.01.2018;06:00;13;8;-;-;19;;;wolkig
10.01.2018;07:00;27;8;-;-;19;;;Regen
10.01.2018;08:00;134;8;-;-;17;;;Regen
10.01.2018;09:00;40;8;-;-;17;;;wolkig
10.01.2018;10:00;22;8;-;-;19;;;wolkig
10.01.2018;11:00;30;9;-;-;17;;;Klarer Himmel
10.01.2018;12:00;15;9;-;-;20;;;Klarer Himmel
10.01.2018;13:00;25;9;-;-;20;;;wolkig
10.01.2018;14:00;31;10;-;-;22;;;wolkig
10.01.2018;15:00;117;9;-;-;15;;;wolkig
10.01.2018;16:00;54;9;-;-;13;;;wolkig
10.01.2018;17:00;29;9;-;-;11;;;wolkig
10.01.2018;18:00;10;9;-;-;11;;;wolkig
10.01.2018;19:00;10;9;-;-;11;;;Regen
10.01.2018;20:00;7;8;-;-;9;;;wolkig
10.01.2018;21:00;4;8;-;-;13;;;wolkig
10.01.2018;22:00;6;8;-;-;9;;;wolkig
10.01.2018;23:00;1;7;-;-;11;;;Regen
11.01.2018;00:00;0;7;-;-;9;;;Regen
11.01.2018;01:00;0;7;-;-;7;;;wolkig
11.01.2018;02:00;0;5;-;-;7;;;wolkig
11.01.2018;03:00;0;6;-;-;9;;;wolkig
11.01.2018;04:00;4;6;-;-;9;;;wolkig
11.01.2018;05:00;0;6;-;-;6;;;wolkig
11.01.2018;06:00;17;6;-;-;2;;;Nebel
11.01.2018;07:00;7;5;-;-;2;;;wolkig
11.01.2018;08:00;119;5;-;-;4;;;wolkig
11.01.2018;09:00;34;6;-;-;4;;;wolkig
11.01.2018;10:00;39;7;-;-;4;;;wolkig
11.01.2018;11:00;32;8;-;-;9;;;wolkig
11.01.2018;12:00;26;9;-;-;4;;;wolkig
11.01.2018;13:00;32;9;-;-;9;;;wolkig
11.01.2018;14:00;39;8;-;-;7;;;wolkig
11.01.2018;15:00;37;8;-;-;6;;;wolkig
11.01.2018;16:00;98;8;-;-;6;;;wolkig
11.01.2018;17:00;30;8;-;-;6;;;wolkig
11.01.2018;18:00;17;7;-;-;6;;;wolkig
11.01.2018;19:00;11;7;-;-;6;;;wolkig
11.01.2018;20:00;7;6;-;-;6;;;wolkig
11.01.2018;21:00;5;5;-;-;4;;;Nebel
11.01.2018;22:00;0;5;-;-;4;;;Nebel
11.01.2018;23:00;4;6;-;-;6;;;wolkig
12.01.2018;00:00;1;5;-;-;6;;;wolkig
12.01.2018;01:00;0;5;-;-;6;;;Nebel
12.01.2018;02:00;1;4;-;-;7;;;Nebel
12.01.2018;03:00;0;4;-;-;4;;;wolkig
12.01.2018;04:00;0;4;-;-;6;;;Nebel
12.01.2018;05:00;4;4;-;-;6;;;Nebel
12.01.2018;06:00;8;4;-;-;4;;;Nebel
12.01.2018;07:00;85;4;-;-;4;;;Nebel
12.01.2018;08:00;84;4;-;-;6;;;Nebel
12.01.2018;09:00;28;4;-;-;4;;;Nebel
12.01.2018;10:00;20;4;-;-;4;;;wolkig
12.01.2018;11:00;40;4;-;-;6;;;wolkig
12.01.2018;12:00;80;5;-;-;4;;;wolkig
12.01.2018;13:00;72;5;-;-;4;;;wolkig
12.01.2018;14:00;17;5;-;-;2;;;Regen
12.01.2018;15:00;10;5;-;-;2;;;wolkig
12.01.2018;16:00;15;5;-;-;4;;;Regen
12.01.2018;17:00;21;5;-;-;4;;;Regen
12.01.2018;18:00;9;5;-;-;6;;;wolkig
12.01.2018;19:00;5;5;-;-;4;;;Regen
12.01.2018;20:00;9;5;-;-;4;;;wolkig
12.01.2018;21:00;1;5;-;-;2;;;wolkig
12.01.2018;22:00;14;5;-;-;4;;;wolkig
12.01.2018;23:00;2;5;-;-;2;;;wolkig
13.01.2018;00:00;1;5;-;-;4;;;wolkig
13.01.2018;01:00;1;5;-;-;6;;;wolkig
13.01.2018;02:00;1;5;-;-;4;;;Nebel
13.01.2018;03:00;0;4;-;-;4;;;Nebel
13.01.2018;04:00;0;3;-;-;7;;;wolkig
13.01.2018;05:00;1;4;-;-;4;;;wolkig
13.01.2018;06:00;0;4;-;-;4;;;wolkig
13.01.2018;07:00;3;3;-;-;7;;;wolkig
13.01.2018;08:00;14;6;-;-;15;;;wolkig
13.01.2018;09:00;15;6;-;-;17;;;wolkig
13.01.2018;10:00;13;6;-;-;24;;;wolkig
13.01.2018;11:00;8;6;-;-;26;;;wolkig
13.01.2018;12:00;24;6;-;-;28;;;wolkig
13.01.2018;13:00;9;7;-;-;19;;;wolkig
13.01.2018;14:00;13;7;-;-;19;;;wolkig
13.01.2018;15:00;4;7;-;-;17;;;wolkig
13.01.2018;16:00;15;6;-;-;15;;;wolkig
13.01.2018;17:00;10;5;-;-;13;;;teilweise bewölkt
13.01.2018;18:00;5;1;-;-;15;;;teilweise bewölkt
13.01.2018;19:00;7;2;-;-;13;;;teilweise bewölkt
13.01.2018;20:00;4;3;-;-;11;;;wolkig
13.01.2018;21:00;1;4;-;-;9;;;wolkig
13.01.2018;22:00;3;5;-;-;13;;;wolkig
13.01.2018;23:00;1;5;-;-;15;;;wolkig
14.01.2018;00:00;4;5;-;-;19;;;wolkig
14.01.2018;01:00;0;5;-;-;15;;;wolkig
14.01.2018;02:00;0;5;-;-;17;;;wolkig
14.01.2018;03:00;0;4;-;-;20;;;wolkig
14.01.2018;04:00;1;4;-;-;17;;;wolkig
14.01.2018;05:00;0;4;-;-;19;;;wolkig
14.01.2018;06:00;0;4;-;-;13;;;wolkig
14.01.2018;07:00;2;4;-;-;19;;;wolkig
14.01.2018;08:00;0;3;-;-;19;;;wolkig
14.01.2018;09:00;3;3;-;-;17;;;wolkig
14.01.2018;10:00;4;4;-;-;19;;;teilweise bewölkt
14.01.2018;11:00;6;4;-;-;22;;;teilweise bewölkt
14.01.2018;12:00;10;5;-;-;22;;;teilweise bewölkt
14.01.2018;13:00;21;5;-;-;30;;;teilweise bewölkt
14.01.2018;14:00;7;5;-;-;22;;;teilweise bewölkt
14.01.2018;15:00;17;4;-;-;26;;;teilweise bewölkt
14.01.2018;16:00;7;3;-;-;15;;;teilweise bewölkt
14.01.2018;17:00;4;3;-;-;20;;;teilweise bewölkt
14.01.2018;18:00;7;3;-;-;20;;;Klarer Himmel
14.01.2018;19:00;4;3;-;-;22;;;Klarer Himmel
14.01.2018;20:00;1;3;-;-;20;;;Klarer Himmel
14.01.2018;21:00;2;2;-;-;24;;;Klarer Himmel
14.01.2018;22:00;2;2;-;-;26;;;Klarer Himmel
14.01.2018;23:00;0;2;-;-;28;;;Klarer Himmel
15.01.2018;00:00;0;2;-;-;26;;;teilweise bewölkt
15.01.2018;01:00;1;2;-;-;26;;;wolkig
15.01.2018;02:00;0;2;-;-;26;;;teilweise bewölkt
15.01.2018;03:00;0;3;-;-;24;;;wolkig
15.01.2018;04:00;4;3;-;-;24;;;wolkig
15.01.2018;05:00;12;4;-;-;22;;;wolkig
15.01.2018;06:00;10;4;-;-;20;;;wolkig
15.01.2018;07:00;148;3;-;-;24;;;teilweise bewölkt
15.01.2018;08:00;31;3;-;-;28;;;Klarer Himmel
15.01.2018;09:00;24;4;-;-;28;;;wolkig
15.01.2018;10:00;15;5;-;-;24;;;wolkig
15.01.2018;11:00;23;6;-;-;26;;;wolkig
15.01.2018;12:00;31;6;-;-;32;;;Regen
15.01.2018;13:00;26;6;-;-;32;;;Regen
15.01.2018;14:00;27;7;-;-;28;;;Regen
15.01.2018;15:00;112;6;-;-;37;;;Regen
15.01.2018;16:00;36;6;-;-;33;;;Regen
15.01.2018;17:00;21;6;-;-;37;;;Regen
15.01.2018;18:00;8;6;-;-;35;;;Regen
15.01.2018;19:00;3;6;-;-;33;;;wolkig
15.01.2018;20:00;0;7;-;-;22;;;Regen
15.01.2018;21:00;1;7;-;-;37;;;Regen
15.01.2018;22:00;0;7;-;-;30;;;Regen
15.01.2018;23:00;0;7;-;-;24;;;Regen
16.01.2018;00:00;0;7;-;-;26;;;wolkig
16.01.2018;01:00;0;7;-;-;26;;;Regen
16.01.2018;02:00;0;6;-;-;22;;;wolkig
16.01.2018;03:00;0;6;-;-;24;;;wolkig
16.01.2018;04:00;4;6;-;-;32;;;Regen
16.01.2018;05:00;9;6;-;-;28;;;teilweise bewölkt
16.01.2018;06:00;11;6;-;-;28;;;teilweise bewölkt
16.01.2018;07:00;123;7;-;-;26;;;teilweise bewölkt
16.01.2018;08:00;28;7;-;-;24;;;wolkig
16.01.2018;09:00;44;7;-;-;37;;;teilweise bewölkt
16.01.2018;10:00;19;5;-;-;44;;;Gewitter
16.01.2018;11:00;36;4;-;-;24;;;Regen
16.01.2018;12:00;56;4;-;-;17;;;Regen
16.01.2018;13:00;48;4;-;-;19;;;Regen
16.01.2018;14:00;14;4;-;-;15;;;teilweise bewölkt
16.01.2018;15:00;48;4;-;-;41;;;Regen
16.01.2018;16:00;15;4;-;-;32;;;Regen
16.01.2018;17:00;10;3;-;-;26;;;teilweise bewölkt
16.01.2018;18:00;3;1;-;-;17;;;teilweise bewölkt
16.01.2018;19:00;7;2;-;-;17;;;teilweise bewölkt
16.01.2018;20:00;8;2;-;-;20;;;Klarer Himmel
16.01.2018;21:00;1;2;-;-;17;;;teilweise bewölkt
16.01.2018;22:00;2;2;-;-;19;;;Klarer Himmel
16.01.2018;23:00;0;3;-;-;20;;;wolkig
17.01.2018;00:00;0;3;-;-;15;;;teilweise bewölkt
17.01.2018;01:00;0;3;-;-;20;;;wolkig
17.01.2018;02:00;2;4;-;-;35;;;Gewitter
17.01.2018;03:00;0;2;-;-;30;;;Schnee
17.01.2018;04:00;5;3;-;-;17;;;wolkig
17.01.2018;05:00;4;2;-;-;28;;;Schnee
17.01.2018;06:00;6;2;-;-;24;;;wolkig
17.01.2018;07:00;104;2;-;-;28;;;Schnee
17.01.2018;08:00;51;2;-;-;28;;;teilweise bewölkt
17.01.2018;09:00;36;2;-;-;30;;;teilweise bewölkt
17.01.2018;10:00;13;3;-;-;32;;;teilweise bewölkt
17.01.2018;11:00;30;3;-;-;30;;;Regen
17.01.2018;12:00;26;3;-;-;37;;;Regen
17.01.2018;13:00;17;4;-;-;30;;;wolkig
17.01.2018;14:00;18;3;-;-;44;;;Regen
17.01.2018;15:00;88;3;-;-;33;;;teilweise bewölkt
17.01.2018;16:00;35;4;-;-;24;;;Regen
17.01.2018;17:00;24;4;-;-;24;;;teilweise bewölkt
17.01.2018;18:00;7;4;-;-;28;;;Klarer Himmel
17.01.2018;19:00;6;3;-;-;20;;;Klarer Himmel
17.01.2018;20:00;4;4;-;-;24;;;teilweise bewölkt
17.01.2018;21:00;5;3;-;-;20;;;teilweise bewölkt
17.01.2018;22:00;1;4;-;-;22;;;wolkig
17.01.2018;23:00;0;3;-;-;24;;;Klarer Himmel
18.01.2018;00:00;0;3;-;-;20;;;Klarer Himmel
18.01.2018;01:00;0;4;-;-;24;;;Klarer Himmel
18.01.2018;02:00;0;4;-;-;26;;;Klarer Himmel
18.01.2018;03:00;0;5;-;-;32;;;Regen
18.01.2018;04:00;5;4;-;-;28;;;Regen
18.01.2018;05:00;4;3;-;-;39;;;Regen
18.01.2018;06:00;2;4;-;-;32;;;Regen
18.01.2018;07:00;73;7;-;-;52;;;Regen
18.01.2018;08:00;21;8;-;-;50;;;Regen
18.01.2018;09:00;2;10;-;-;46;;;wolkig
18.01.2018;10:00;2;11;-;-;57;;;wolkig
18.01.2018;11:00;4;8;-;-;83;;;wolkig
18.01.2018;12:00;3;6;-;-;56;;;Regen
18.01.2018;13:00;2;6;-;-;41;;;Regen
18.01.2018;14:00;6;5;-;-;32;;;Regen
18.01.2018;15:00;5;6;-;-;39;;;wolkig
18.01.2018;16:00;7;6;-;-;28;;;Regen
18.01.2018;17:00;11;5;-;-;15;;;Regen
18.01.2018;18:00;11;5;-;-;9;;;Regen
18.01.2018;19:00;4;4;-;-;6;;;teilweise bewölkt
18.01.2018;20:00;3;2;-;-;7;;;teilweise bewölkt
18.01.2018;21:00;1;2;-;-;13;;;wolkig
18.01.2018;22:00;0;2;-;-;7;;;wolkig
18.01.2018;23:00;3;2;-;-;7;;;wolkig
19.01.2018;00:00;0;3;-;-;13;;;wolkig
19.01.2018;01:00;0;3;-;-;15;;;wolkig
19.01.2018;02:00;0;3;-;-;20;;;Regen
19.01.2018;03:00;0;2;-;-;17;;;wolkig
19.01.2018;04:00;1;3;-;-;20;;;Regen
19.01.2018;05:00;8;3;-;-;22;;;Regen
19.01.2018;06:00;10;3;-;-;22;;;Regen
19.01.2018;07:00;79;3;-;-;11;;;wolkig
19.01.2018;08:00;25;3;-;-;24;;;Regen
19.01.2018;09:00;26;3;-;-;20;;;teilweise bewölkt
19.01.2018;10:00;15;4;-;-;20;;;teilweise bewölkt
19.01.2018;11:00;41;4;-;-;20;;;wolkig
19.01.2018;12:00;41;5;-;-;22;;;teilweise bewölkt
19.01.2018;13:00;39;5;-;-;22;;;wolkig
19.01.2018;14:00;16;5;-;-;26;;;wolkig
19.01.2018;15:00;25;4;-;-;11;;;teilweise bewölkt
19.01.2018;16:00;22;2;-;-;15;;;teilweise bewölkt
19.01.2018;17:00;16;1;-;-;17;;;teilweise bewölkt
19.01.2018;18:00;8;2;-;-;19;;;teilweise bewölkt
19.01.2018;19:00;4;3;-;-;19;;;wolkig
19.01.2018;20:00;4;3;-;-;19;;;wolkig
19.01.2018;21:00;0;3;-;-;17;;;teilweise bewölkt
19.01.2018;22:00;5;2;-;-;19;;;Klarer Himmel
19.01.2018;23:00;3;2;-;-;19;;;teilweise bewölkt
20.01.2018;00:00;1;2;-;-;19;;;wolkig
20.01.2018;01:00;1;2;-;-;11;;;Schnee
20.01.2018;02:00;2;1;-;-;9;;;wolkig
20.01.2018;03:00;2;3;-;-;20;;;wolkig
20.01.2018;04:00;1;2;-;-;15;;;teilweise bewölkt
20.01.2018;05:00;1;1;-;-;15;;;teilweise bewölkt
20.01.2018;06:00;3;2;-;-;17;;;wolkig
20.01.2018;07:00;3;2;-;-;15;;;teilweise bewölkt
20.01.2018;08:00;3;3;-;-;15;;;wolkig
20.01.2018;09:00;8;3;-;-;15;;;wolkig
20.01.2018;10:00;13;4;-;-;15;;;wolkig
20.01.2018;11:00;19;4;-;-;15;;;wolkig
20.01.2018;12:00;16;4;-;-;19;;;Regen
20.01.2018;13:00;4;3;-;-;15;;;Regen
20.01.2018;14:00;7;3;-;-;13;;;Regen
20.01.2018;15:00;7;3;-;-;11;;;Regen
20.01.2018;16:00;4;3;-;-;11;;;Regen
20.01.2018;17:00;8;3;-;-;11;;;Regen
20.01.2018;18:00;6;3;-;-;7;;;Regen
20.01.2018;19:00;1;3;-;-;4;;;Regen
20.01.2018;20:00;1;3;-;-;4;;;Regen
20.01.2018;21:00;6;3;-;-;7;;;Regen
20.01.2018;22:00;1;3;-;-;7;;;wolkig
20.01.2018;23:00;1;3;-;-;9;;;Regen
21.01.2018;00:00;2;3;-;-;13;;;Regen
21.01.2018;01:00;0;3;-;-;15;;;Regen
21.01.2018;02:00;0;2;-;-;13;;;Regen
21.01.2018;03:00;2;2;-;-;13;;;wolkig
21.01.2018;04:00;0;2;-;-;11;;;wolkig
21.01.2018;05:00;0;2;-;-;15;;;teilweise bewölkt
21.01.2018;06:00;0;2;-;-;13;;;teilweise bewölkt
21.01.2018;07:00;2;2;-;-;13;;;wolkig
21.01.2018;08:00;6;2;-;-;15;;;wolkig
21.01.2018;09:00;4;2;-;-;13;;;wolkig
21.01.2018;10:00;7;3;-;-;11;;;wolkig
21.01.2018;11:00;12;4;-;-;9;;;Regen
21.01.2018;12:00;22;5;-;-;13;;;wolkig
21.01.2018;13:00;10;5;-;-;13;;;teilweise bewölkt
21.01.2018;14:00;11;5;-;-;15;;;wolkig
21.01.2018;15:00;17;5;-;-;9;;;wolkig
21.01.2018;16:00;17;4;-;-;11;;;wolkig
21.01.2018;17:00;7;2;-;-;13;;;Klarer Himmel
21.01.2018;18:00;3;3;-;-;11;;;Klarer Himmel
21.01.2018;19:00;4;3;-;-;13;;;Klarer Himmel
21.01.2018;20:00;5;3;-;-;15;;;Klarer Himmel
21.01.2018;21:00;2;3;-;-;19;;;Klarer Himmel
21.01.2018;22:00;2;3;-;-;22;;;wolkig
21.01.2018;23:00;1;3;-;-;26;;;Regen
22.01.2018;00:00;0;2;-;-;26;;;Regen
22.01.2018;01:00;0;2;-;-;28;;;Regen
22.01.2018;02:00;0;2;-;-;32;;;Regen
22.01.2018;03:00;1;2;-;-;26;;;Regen
22.01.2018;04:00;4;3;-;-;22;;;Regen
22.01.2018;05:00;9;3;-;-;24;;;Regen
22.01.2018;06:00;7;3;-;-;26;;;Regen
22.01.2018;07:00;89;3;-;-;19;;;Regen
22.01.2018;08:00;10;4;-;-;15;;;wolkig
22.01.2018;09:00;20;5;-;-;13;;;wolkig
22.01.2018;10:00;10;7;-;-;7;;;wolkig
22.01.2018;11:00;27;8;-;-;15;;;wolkig
22.01.2018;12:00;13;8;-;-;17;;;wolkig
22.01.2018;13:00;22;8;-;-;15;;;wolkig
22.01.2018;14:00;20;8;-;-;13;;;wolkig
22.01.2018;15:00;74;8;-;-;13;;;wolkig
22.01.2018;16:00;33;8;-;-;11;;;wolkig
22.01.2018;17:00;16;8;-;-;13;;;Regen
22.01.2018;18:00;6;8;-;-;13;;;wolkig
22.01.2018;19:00;7;8;-;-;17;;;wolkig
22.01.2018;20:00;3;7;-;-;19;;;wolkig
22.01.2018;21:00;7;7;-;-;17;;;wolkig
22.01.2018;22:00;3;7;-;-;15;;;wolkig
22.01.2018;23:00;1;7;-;-;13;;;Regen
23.01.2018;00:00;0;6;-;-;13;;;Regen
23.01.2018;01:00;0;6;-;-;15;;;wolkig
23.01.2018;02:00;1;6;-;-;11;;;Regen
23.01.2018;03:00;0;6;-;-;13;;;Regen
23.01.2018;04:00;4;5;-;-;11;;;Regen
23.01.2018;05:00;16;5;-;-;13;;;wolkig
23.01.2018;06:00;15;6;-;-;19;;;wolkig
23.01.2018;07:00;157;6;-;-;13;;;wolkig
23.01.2018;08:00;22;7;-;-;17;;;wolkig
23.01.2018;09:00;27;7;-;-;17;;;wolkig
23.01.2018;10:00;15;7;-;-;17;;;wolkig
23.01.2018;11:00;41;8;-;-;17;;;wolkig
23.01.2018;12:00;53;8;-;-;20;;;wolkig
23.01.2018;13:00;59;9;-;-;26;;;wolkig
23.01.2018;14:00;26;9;-;-;20;;;teilweise bewölkt
23.01.2018;15:00;33;9;-;-;22;;;wolkig
23.01.2018;16:00;25;9;-;-;26;;;Regen
23.01.2018;17:00;18;9;-;-;24;;;wolkig
23.01.2018;18:00;9;9;-;-;24;;;Regen
23.01.2018;19:00;9;9;-;-;26;;;wolkig
23.01.2018;20:00;7;9;-;-;17;;;wolkig
23.01.2018;21:00;1;10;-;-;24;;;wolkig
23.01.2018;22:00;0;10;-;-;26;;;wolkig
23.01.2018;23:00;1;11;-;-;24;;;wolkig
24.01.2018;00:00;0;11;-;-;26;;;wolkig
24.01.2018;01:00;1;11;-;-;24;;;wolkig
24.01.2018;02:00;0;11;-;-;22;;;wolkig
24.01.2018;03:00;0;12;-;-;26;;;wolkig
24.01.2018;04:00;2;12;-;-;24;;;wolkig
24.01.2018;05:00;10;12;-;-;20;;;wolkig
24.01.2018;06:00;14;12;-;-;24;;;wolkig
24.01.2018;07:00;139;12;-;-;24;;;wolkig
24.01.2018;08:00;54;12;-;-;24;;;wolkig
24.01.2018;09:00;34;12;-;-;24;;;wolkig
24.01.2018;10:00;16;12;-;-;26;;;wolkig
24.01.2018;11:00;37;14;-;-;22;;;wolkig
24.01.2018;12:00;21;14;-;-;26;;;wolkig
24.01.2018;13:00;29;14;-;-;30;;;wolkig
24.01.2018;14:00;22;14;-;-;37;;;wolkig
24.01.2018;15:00;119;14;-;-;39;;;wolkig
24.01.2018;16:00;38;13;-;-;33;;;wolkig
24.01.2018;17:00;32;13;-;-;43;;;wolkig
24.01.2018;18:00;7;13;-;-;35;;;wolkig
24.01.2018;19:00;9;13;-;-;32;;;Klarer Himmel
24.01.2018;20:00;6;13;-;-;28;;;wolkig
24.01.2018;21:00;1;12;-;-;33;;;wolkig
24.01.2018;22:00;0;12;-;-;32;;;wolkig
24.01.2018;23:00;2;12;-;-;33;;;wolkig
25.01.2018;00:00;4;12;-;-;33;;;Regen
25.01.2018;01:00;1;9;-;-;20;;;Regen
25.01.2018;02:00;1;8;-;-;19;;;Regen
25.01.2018;03:00;1;8;-;-;15;;;Regen
25.01.2018;04:00;4;8;-;-;19;;;Regen
25.01.2018;05:00;9;8;-;-;17;;;wolkig
25.01.2018;06:00;7;7;-;-;15;;;wolkig
25.01.2018;07:00;142;7;-;-;15;;;wolkig
25.01.2018;08:00;11;8;-;-;13;;;wolkig
25.01.2018;09:00;42;8;-;-;15;;;wolkig
25.01.2018;10:00;15;9;-;-;17;;;wolkig
25.01.2018;11:00;27;9;-;-;19;;;wolkig
25.01.2018;12:00;31;10;-;-;15;;;wolkig
25.01.2018;13:00;34;10;-;-;17;;;wolkig
25.01.2018;14:00;28;10;-;-;17;;;wolkig
25.01.2018;15:00;104;10;-;-;11;;;wolkig
25.01.2018;16:00;37;9;-;-;13;;;wolkig
25.01.2018;17:00;21;7;-;-;7;;;Regen
25.01.2018;18:00;20;8;-;-;15;;;Regen
25.01.2018;19:00;17;7;-;-;20;;;Regen